Location: Puketoi
(40.5833°S, 176.0167°E)
Time: 14:52:51
(UTC+00:00)

NOAA 12 - Pass Details

Date: 08 February 2023
Orbit: 796 x 814 km, 98.5° (Epoch: 23 March)

Event Time Altitude Azimuth Distance (km) Brightness Sun altitude
Rises 16:56:56 0° 15° (NNE) 3,330 7.2 -7.0°
Reaches altitude 10° 16:59:16 10° 15° (NNE) 2,406 6.5 -6.7°
Maximum altitude 17:04:36 90° 326° (NW) 828 4.2 -5.7°
Drops below altitude 10° 17:10:01 10° 193° (SSW) 2,430 6.8 -4.8°
Sets 17:12:23 0° 193° (SSW) 3,366 7.5 -4.4°
